STARLINK-32201, 61512

Orbit data source: Space-Track

STARLINK-32201, 61512 is a payload satellite owned by SpaceX/Seattle (US) in LEO that was launched on Tue, 15 Oct 2024 UTC via an FALCON 9 launch vehicle from the Air Force Eastern Test Range (AFETR). Payload-class satellites include a variety of spacecraft equipped with specific instruments for various scientific and technological missions. These include communications satellites like Starlink; space stations such as the ISS; scientific satellites like the Hubble; Earth observation satellites from companies like Planet Labs, Umbra, and HawkEye 360; GPS; miniature CubeSats for education and research; and military/defense satellites.

Loading next visibility...
Identifier
61512, 2024-183D
Orbit
LEO
Country
Flag of USUS
Related business
Manufacturer
SpaceX/Seattle
Mission
Operational Commercial Communications
Bus & Motor
STARLINK V2M, Unknown motor
Mass
730 kg wet, ~700 kg dry
Launch date (UTC)
2024-10-15 (2 years ago)
Launch vehicle
FALCON 9
Launch site
Air Force Eastern Test Range (AFETR)
Object type
Payload
Rocket body
Debris
Shape & HBR
Box + 2 Pan, 17.7 m
Radar Cross Section
33.884 m², Large (>1 m²)

Expand to show TLE details & history
Last TLE update: 22 hours ago

TLE from 22 hours ago
0 STARLINK-32201
1 61512U 24183D   26170.93165921  .00001821  00000-0  65030-4 0  9995
2 61512  53.1620  14.2276 0001470  66.4285 293.6872 15.34397604 95484
Epoch: 2026-06-19T22:21Z
TLE epoch observation values (Epoch: 2026-06-19T22:21:35.355Z)
Latitude
-0.00003°
Longitude
130.67671°
Altitude
463.208 km
Speed
7.636 km/s
True Right ascension
00h 56m 54s
True Declination
0° 00' 00"
Sunlit
Object was in daylight at epoch
Visualization orbit readout
Latitude
Unknown
Longitude
Unknown
Altitude
Unknown
Speed
Unknown
Apparent Right ascension
Unknown
Apparent Declination
Unknown
Sunlit
N/A
Visualization observer readout
Local Sidereal Time
07:24:39
Azimuth
Unknown
Elevation
Unknown
Doppler factor
Unknown
Orbital elements
Apogee altitude
463.973 km
Perigee altitude
461.961 km
Semi-major axis
6,841.104 km
Eccentricity
0.00015
Inclination
53.162°
RAAN
14.2276°
Arg. of periapsis
66.4285°
True anomaly
293.67177°
Mean anomaly
293.6872°
Eccentric anomaly
293.67949°
Mean motion
3.83578 °/min
Orbital period
93.85 mins
BSTAR
0.00006503
Loading maneuver chart data...
Computing Atmospheric mass density...
Loading historical data...
Loading historical data...
Loading historical data...
Loading historical data...
Loading historical data...
Loading historical data...
Loading historical data...

Documentation

Showing up to 5 results
|